FW2402 Weather Reports


time (UTC)temp
C
wind
direction
speed
KPH
gust
KPH
rain 1hr
cm
rain 24hr
cm
rain mn
cm
humidity
%
barometer
mb
20260903213523 30 63 4.8 12.9 0.00 0.10 0.03 79 1012.1
20260903213047 30 56 4.8 12.9 0.00 0.10 0.03 79 1011.8
20260903212528 30 112 6.4 12.9 0.00 0.10 0.03 78 1011.8
20260903212024 30 53 4.8 12.9 0.00 0.10 0.03 78 1011.8
20260903211542 30 76 6.4 12.9 0.00 0.10 0.03 76 1011.8
20260903211025 30 38 4.8 11.3 0.00 0.10 0.03 79 1011.8
20260903210525 30 88 3.2 9.7 0.00 0.10 0.03 79 1011.6
20260903210048 30 96 1.6 9.7 0.00 0.10 0.03 79 1011.7
20260903205523 30 99 4.8 8.0 0.00 0.10 0.03 79 1011.8
20260903205022 30 72 3.2 6.4 0.00 0.10 0.03 81 1011.9
20260903204542 30 59 3.2 9.7 0.00 0.10 0.03 81 1012.0
20260903204023 30 74 1.6 11.3 0.00 0.10 0.03 82 1012.1
20260903203526 30 0 3.2 11.3 0.00 0.10 0.03 82 1011.9
20260903203042 30 121 3.2 8.0 0.00 0.10 0.03 80 1011.9
20260903202526 30 98 3.2 6.4 0.00 0.10 0.03 85 1012.1
20260903202023 29 107 3.2 9.7 0.00 0.10 0.03 83 1012.3
20260903201558 29 105 4.8 9.7 0.00 0.10 0.03 84 1012.4
20260903201027 29 101 3.2 8.0 0.00 0.10 0.03 84 1012.5
20260903200526 28 113 3.2 12.9 0.00 0.10 0.03 85 1012.4
20260903200051 28 110 4.8 12.9 0.00 0.10 0.03 86 1012.6
20260903195523 28 109 6.4 11.3 0.00 0.10 0.03 85 1012.7
20260903195029 28 65 4.8 11.3 0.00 0.10 0.03 85 1012.7
20260903194542 28 123 3.2 12.9 0.00 0.10 0.03 87 1012.8
20260903194023 28 55 6.4 14.5 0.00 0.10 0.03 88 1013.0
20260903193525 28 78 8.0 14.5 0.00 0.10 0.03 87 1013.1
20260903193049 28 91 4.8 11.3 0.00 0.10 0.03 90 1013.3
20260903192530 28 82 4.8 11.3 0.00 0.10 0.03 90 1013.3
20260903192025 28 40 4.8 11.3 0.00 0.10 0.03 89 1013.6
20260903191549 27 95 4.8 11.3 0.00 0.10 0.03 89 1013.6
20260903191024 28 83 3.2 11.3 0.00 0.10 0.03 89 1013.6
20260903190524 27 100 4.8 9.7 0.00 0.10 0.03 92 1013.7
20260903190044 27 83 3.2 9.7 0.00 0.10 0.03 92 1013.8
20260903185522 26 94 3.2 11.3 0.00 0.10 0.03 92 1013.7
20260903185024 26 104 4.8 11.3 0.00 0.10 0.03 91 1013.7
20260903184551 26 157 4.8 12.9 0.00 0.10 0.03 90 1013.7
20260903184027 26 115 3.2 12.9 0.00 0.10 0.03 90 1013.6
20260903183524 26 124 4.8 16.1 0.00 0.10 0.03 89 1013.6
20260903183050 26 137 3.2 16.1 0.00 0.10 0.03 88 1013.6
20260903182524 27 154 6.4 16.1 0.00 0.10 0.03 88 1013.7
20260903182025 27 107 4.8 9.7 0.00 0.10 0.03 89 1013.6
20260903181547 27 92 3.2 11.3 0.00 0.10 0.03 89 1013.6
20260903181026 27 79 3.2 11.3 0.00 0.10 0.03 88 1013.6
20260903180529 27 80 6.4 11.3 0.00 0.10 0.03 88 1013.5
20260903180047 27 74 3.2 8.0 0.00 0.10 0.03 87 1013.6
20260903175520 27 80 3.2 12.9 0.00 0.10 0.03 87 1013.7
20260903175023 27 96 3.2 12.9 0.00 0.10 0.03 87 1013.8
20260903174542 27 98 3.2 12.9 0.00 0.10 0.03 87 1014.0
20260903174022 27 121 4.8 12.9 0.00 0.10 0.03 86 1014.2
20260903173525 27 119 6.4 12.9 0.00 0.10 0.03 86 1014.3
20260903173043 28 109 4.8 9.7 0.00 0.10 0.03 87 1014.4
20260903172528 28 84 4.8 9.7 0.00 0.10 0.03 86 1014.4
20260903172026 28 80 3.2 12.9 0.00 0.10 0.03 86 1014.4
20260903171545 28 80 4.8 12.9 0.00 0.10 0.03 86 1014.3
20260903171025 28 107 4.8 12.9 0.00 0.10 0.03 86 1014.5
20260903170524 28 85 8.0 14.5 0.00 0.10 0.03 85 1014.6
20260903170052 28 90 8.0 14.5 0.00 0.10 0.03 85 1014.6
20260903165526 28 77 8.0 17.7 0.00 0.10 0.03 83 1014.5
20260903165025 28 65 8.0 17.7 0.00 0.10 0.03 84 1014.5
20260903164549 29 64 6.4 14.5 0.00 0.10 0.03 84 1014.6
20260903164025 29 63 8.0 16.1 0.00 0.10 0.03 83 1014.6
20260903163527 29 76 6.4 16.1 0.00 0.10 0.03 83 1014.6
20260903163101 30 76 6.4 17.7 0.00 0.10 0.03 80 1014.7
20260903162523 30 32 6.4 17.7 0.00 0.10 0.03 83 1014.7
20260903162025 29 62 11.3 17.7 0.00 0.10 0.03 82 1014.6
20260903161543 29 89 9.7 16.1 0.00 0.10 0.03 79 1014.7
20260903161023 29 80 4.8 16.1 0.00 0.10 0.03 81 1014.7
20260903160526 30 76 3.2 16.1 0.00 0.10 0.03 81 1014.6
20260903160048 30 114 4.8 14.5 0.00 0.10 0.03 82 1014.6
20260903155525 29 101 8.0 14.5 0.00 0.10 0.03 84 1014.7
20260903155026 28 55 6.4 14.5 0.00 0.10 0.03 85 1014.7
20260903154550 28 63 6.4 14.5 0.00 0.10 0.03 84 1014.8
20260903154027 28 50 6.4 14.5 0.00 0.10 0.03 85 1014.9
20260903153525 28 49 4.8 12.9 0.00 0.10 0.03 86 1014.8
20260903153058 28 60 6.4 12.9 0.00 0.10 0.03 85 1014.8
20260903152523 28 61 6.4 12.9 0.00 0.10 0.03 85 1014.9
20260903152028 28 29 3.2 12.9 0.00 0.10 0.03 87 1014.9
20260903151542 28 134 6.4 12.9 0.00 0.10 0.03 87 1014.9
20260903151025 28 86 6.4 16.1 0.00 0.10 0.03 88 1014.9
20260903150525 28 103 8.0 16.1 0.00 0.10 0.03 88 1014.7
20260903150100 28 48 6.4 14.5 0.00 0.10 0.03 88 1014.8
20260903145526 28 73 6.4 14.5 0.00 0.10 0.03 88 1014.9
20260903145026 28 43 4.8 14.5 0.00 0.10 0.03 89 1014.9
20260903144544 28 86 4.8 12.9 0.00 0.10 0.03 90 1014.9
20260903144023 27 86 6.4 16.1 0.00 0.10 0.03 90 1014.9
20260903143525 27 62 6.4 16.1 0.00 0.10 0.03 91 1015.0
20260903143058 27 90 8.0 14.5 0.00 0.10 0.03 91 1014.9
20260903142525 27 26 4.8 14.5 0.00 0.10 0.03 91 1014.9
20260903142025 27 76 4.8 11.3 0.00 0.10 0.03 91 1014.9
20260903141550 27 46 4.8 11.3 0.00 0.10 0.03 91 1014.7
20260903141024 27 38 4.8 8.0 0.00 0.10 0.03 91 1014.7
20260903140525 27 43 3.2 11.3 0.00 0.10 0.03 91 1014.7
20260903140051 27 81 4.8 12.9 0.00 0.10 0.03 91 1014.7
20260903135526 27 70 4.8 14.5 0.00 0.10 0.03 92 1014.7
20260903135023 27 68 8.0 14.5 0.00 0.10 0.03 91 1014.6
20260903134545 27 57 6.4 12.9 0.00 0.10 0.03 91 1014.6
20260903134020 27 52 6.4 12.9 0.00 0.10 0.03 92 1014.5
20260903133524 27 52 6.4 12.9 0.00 0.10 0.03 91 1014.5
20260903133042 27 72 4.8 8.0 0.00 0.10 0.03 92 1014.5
20260903132522 27 0 1.6 6.4 0.00 0.10 0.03 93 1014.4
20260903132024 27 61 1.6 6.4 0.00 0.10 0.03 94 1014.4
20260903131543 27 0 1.6 8.0 0.00 0.10 0.03 95 1014.4
20260903131030 26 58 3.2 8.0 0.00 0.10 0.03 95 1014.4
20260903130528 26 40 3.2 9.7 0.00 0.10 0.03 96 1014.4
20260903130048 26 43 4.8 9.7 0.00 0.10 0.03 96 1014.3
20260903125521 26 61 4.8 9.7 0.00 0.10 0.03 97 1014.4
20260903125024 25 50 4.8 9.7 0.00 0.10 0.03 97 1014.5
20260903124543 26 49 3.2 9.7 0.00 0.10 0.03 97 1014.6
20260903124025 25 42 3.2 6.4 0.00 0.10 0.03 97 1014.6
20260903123521 25 59 3.2 6.4 0.00 0.10 0.03 97 1014.5
20260903123042 25 53 1.6 4.8 0.00 0.10 0.03 97 1014.4
20260903122518 25 49 1.6 4.8 0.00 0.10 0.03 97 1014.5
20260903122024 25 43 0.0 3.2 0.00 0.10 0.03 97 1014.3
20260903121548 25 0 0.0 3.2 0.00 0.10 0.03 97 1014.2
20260903121025 25 0 0.0 3.2 0.00 0.10 0.03 97 1014.2
20260903120521 25 0 0.0 8.0 0.00 0.10 0.03 97 1014.1
20260903120051 25 0 0.0 8.0 0.00 0.10 0.03 97 1014.1
20260903115524 25 40 1.6 8.0 0.00 0.10 0.03 97 1014.1
20260903115024 24 62 4.8 8.0 0.00 0.10 0.03 97 1014.0
20260903114541 24 69 3.2 8.0 0.00 0.10 0.03 97 1013.9
20260903114026 24 56 3.2 8.0 0.00 0.10 0.03 97 1013.9
20260903113522 24 43 1.6 8.0 0.00 0.10 0.03 97 1013.8
20260903113040 24 44 1.6 6.4 0.00 0.10 0.03 97 1013.9
20260903112524 24 43 1.6 8.0 0.00 0.10 0.03 97 1013.8
20260903112021 24 0 1.6 8.0 0.00 0.10 0.03 97 1013.6
20260903111555 24 54 1.6 4.8 0.00 0.10 0.03 97 1013.5
20260903111027 24 0 0.0 4.8 0.00 0.10 0.03 97 1013.4
20260903110520 24 0 0.0 4.8 0.00 0.10 0.03 97 1013.5
20260903110043 24 0 0.0 3.2 0.00 0.10 0.03 97 1013.5
20260903105521 24 0 0.0 3.2 0.00 0.10 0.03 97 1013.4
20260903105024 24 0 0.0 0.0 0.00 0.10 0.03 97 1013.2
20260903104601 24 0 0.0 0.0 0.00 0.10 0.03 97 1013.1
20260903104023 24 0 0.0 3.2 0.00 0.10 0.03 97 1013.3
20260903103524 24 0 0.0 3.2 0.00 0.10 0.03 97 1013.1
20260903103055 24 82 1.6 3.2 0.00 0.10 0.03 97 1013.1
20260903102519 24 0 0.0 4.8 0.00 0.10 0.03 97 1013.0
20260903102025 24 65 1.6 4.8 0.00 0.10 0.03 97 1013.0
20260903101549 24 42 0.0 3.2 0.00 0.10 0.03 97 1013.0
20260903101021 24 0 0.0 0.0 0.00 0.10 0.03 97 1013.0
20260903100524 24 0 0.0 0.0 0.00 0.10 0.03 97 1013.0
20260903100049 24 0 0.0 0.0 0.00 0.10 0.03 97 1013.0
20260903095523 24 0 0.0 0.0 0.00 0.10 0.03 97 1013.1
20260903095022 24 0 0.0 0.0 0.00 0.10 0.03 97 1013.1
20260903094549 24 0 0.0 0.0 0.00 0.10 0.03 97 1013.1
20260903094024 24 0 0.0 3.2 0.00 0.10 0.03 97 1013.0
20260903093523 24 0 0.0 3.2 0.00 0.10 0.03 97 1013.1
20260903093048 23 0 0.0 0.0 0.00 0.10 0.03 97 1013.1
20260903092518 24 0 0.0 0.0 0.00 0.10 0.03 97 1013.1
20260903092027 24 0 0.0 0.0 0.00 0.10 0.03 96 1013.1
20260903091549 24 0 0.0 0.0 0.00 0.10 0.03 96 1013.0
20260903091025 24 0 0.0 1.6 0.00 0.10 0.03 96 1013.0
20260903090521 24 0 0.0 1.6 0.00 0.10 0.03 96 1012.9
20260903090048 24 0 0.0 1.6 0.00 0.10 0.03 96 1012.9
20260903085524 24 42 0.0 3.2 0.00 0.10 0.03 96 1012.9
20260903085022 24 0 0.0 4.8 0.00 0.10 0.03 96 1012.8
20260903084546 24 30 0.0 4.8 0.00 0.10 0.03 97 1012.8
20260903084019 24 53 1.6 4.8 0.00 0.10 0.03 97 1012.8
20260903083525 24 49 0.0 3.2 0.00 0.10 0.03 97 1012.8
20260903083057 24 49 0.0 4.8 0.00 0.10 0.03 97 1012.8
20260903082529 24 49 0.0 4.8 0.00 0.10 0.03 97 1012.8
20260903082024 24 0 0.0 3.2 0.00 0.10 0.03 97 1012.8
20260903081606 24 0 0.0 4.8 0.00 0.10 0.03 97 1012.8
20260903081027 24 0 0.0 4.8 0.00 0.10 0.03 97 1012.8
20260903080531 24 74 0.0 4.8 0.00 0.10 0.03 97 1012.9
20260903080049 24 0 0.0 3.2 0.00 0.10 0.03 97 1012.9
20260903075528 24 0 0.0 3.2 0.00 0.13 0.03 97 1012.9
20260903075019 24 0 0.0 4.8 0.00 0.13 0.03 96 1012.9
20260903074547 24 48 0.0 4.8 0.00 0.13 0.03 96 1013.0
20260903074026 24 53 1.6 4.8 0.00 0.13 0.03 96 1013.0
20260903073525 24 46 0.0 4.8 0.00 0.13 0.03 96 1013.0
20260903073041 24 0 0.0 4.8 0.00 0.13 0.03 96 1013.1
20260903072524 24 35 0.0 4.8 0.00 0.13 0.03 96 1013.1
20260903072027 24 0 0.0 4.8 0.00 0.13 0.03 96 1013.2
20260903071549 24 0 0.0 4.8 0.00 0.13 0.03 96 1013.2
20260903071025 24 43 0.0 4.8 0.00 0.13 0.03 96 1013.2
20260903070523 24 0 0.0 3.2 0.00 0.13 0.03 96 1013.2
20260903070042 24 47 1.6 4.8 0.00 0.13 0.03 96 1013.2
20260903065523 24 0 0.0 4.8 0.00 0.13 0.03 96 1013.3
20260903065024 24 40 1.6 4.8 0.00 0.13 0.03 96 1013.2
20260903064547 24 36 1.6 4.8 0.00 0.13 0.03 96 1013.4
20260903064024 24 0 0.0 6.4 0.00 0.13 0.03 96 1013.3
20260903063522 24 55 1.6 6.4 0.00 0.13 0.03 96 1013.4
20260903063051 24 49 1.6 4.8 0.00 0.13 0.03 96 1013.6
20260903062521 25 42 0.0 3.2 0.00 0.13 0.03 96 1013.5
20260903062024 25 0 0.0 4.8 0.00 0.13 0.03 96 1013.6
20260903061544 25 0 0.0 4.8 0.00 0.13 0.03 96 1013.6
20260903061023 25 0 1.6 4.8 0.00 0.13 0.03 96 1013.7
20260903060524 25 51 1.6 4.8 0.00 0.13 0.03 96 1013.7
20260903060044 25 0 0.0 6.4 0.00 0.13 0.03 96 1013.7
20260903055524 25 53 0.0 6.4 0.00 0.13 0.03 96 1013.7
20260903055025 25 38 1.6 6.4 0.00 0.13 0.03 96 1013.7
20260903054555 25 27 1.6 6.4 0.00 0.13 0.03 96 1013.7
20260903054024 25 55 3.2 6.4 0.00 0.13 0.03 96 1013.8
20260903053521 25 47 1.6 4.8 0.00 0.13 0.03 96 1013.8
20260903053041 25 57 0.0 4.8 0.00 0.13 0.03 96 1014.0
20260903052524 25 50 1.6 4.8 0.00 0.13 0.03 96 1014.0
20260903052025 25 44 1.6 4.8 0.03 0.13 0.03 96 1014.1
20260903051542 25 49 1.6 4.8 0.03 0.13 0.03 96 1014.0
20260903051024 25 47 1.6 4.8 0.03 0.13 0.03 96 1014.2
20260903050525 25 50 1.6 4.8 0.03 0.13 0.03 96 1014.2
20260903050049 25 57 1.6 4.8 0.03 0.13 0.03 96 1014.2
20260903045527 25 45 1.6 4.8 0.03 0.13 0.03 96 1014.3
20260903045023 25 70 1.6 4.8 0.03 0.13 0.03 96 1014.3
20260903044547 25 0 0.0 4.8 0.03 0.13 0.03 96 1014.3
20260903044023 25 0 0.0 4.8 0.03 0.13 0.03 96 1014.4
20260903043522 25 71 1.6 6.4 0.03 0.13 0.03 96 1014.4
20260903043042 25 53 3.2 6.4 0.03 0.13 0.03 96 1014.3
20260903042520 25 57 1.6 6.4 0.03 0.13 0.03 96 1014.4
20260903042024 25 65 1.6 6.4 0.00 0.10 0.00 96 1014.5
20260903041551 25 73 3.2 6.4 0.00 0.10 0.00 96 1014.3
20260903041023 25 78 3.2 6.4 0.00 0.10 0.00 96 1014.4
20260903040523 25 30 1.6 11.3 0.00 0.10 0.00 96 1014.3
20260903040045 25 68 3.2 11.3 0.00 0.10 0.00 96 1014.5
20260903035522 25 74 4.8 9.7 0.00 0.10 0.10 96 1014.6
20260903035024 25 26 3.2 6.4 0.00 0.10 0.10 96 1014.5
20260903034543 25 55 3.2 6.4 0.00 0.10 0.10 96 1014.5
20260903034023 25 65 3.2 6.4 0.00 0.10 0.10 96 1014.5
20260903033522 25 74 1.6 8.0 0.00 0.10 0.10 96 1014.5
20260903033052 25 72 3.2 8.0 0.00 0.10 0.10 96 1014.6
20260903032528 25 55 1.6 6.4 0.00 0.10 0.10 96 1014.5
20260903032025 25 58 3.2 6.4 0.00 0.10 0.10 96 1014.5
20260903031551 25 0 0.0 4.8 0.00 0.10 0.10 96 1014.5
20260903031025 25 50 1.6 4.8 0.00 0.10 0.10 96 1014.6
20260903030528 25 0 0.0 4.8 0.00 0.10 0.10 96 1014.6
20260903030042 25 0 0.0 4.8 0.00 0.10 0.10 96 1014.5
20260903025520 25 71 1.6 4.8 0.00 0.10 0.10 96 1014.5
20260903025023 25 84 1.6 4.8 0.00 0.10 0.10 96 1014.5
20260903024542 25 80 1.6 4.8 0.00 0.10 0.10 95 1014.6
20260903024024 25 65 1.6 3.2 0.00 0.10 0.10 95 1014.6
20260903023530 25 0 0.0 0.0 0.03 0.10 0.10 95 1014.7
20260903023042 25 0 0.0 0.0 0.03 0.10 0.10 95 1014.8
20260903022519 25 0 0.0 0.0 0.03 0.10 0.10 95 1014.7
20260903022020 25 0 0.0 0.0 0.03 0.10 0.10 95 1014.6
20260903021545 25 0 0.0 0.0 0.05 0.10 0.10 95 1014.6
20260903021023 25 0 0.0 1.6 0.05 0.10 0.10 95 1014.7
20260903020527 25 0 0.0 3.2 0.08 0.10 0.10 95 1014.7
20260903020100 25 0 1.6 4.8 0.08 0.10 0.10 95 1014.7
20260903015524 25 0 0.0 4.8 0.08 0.10 0.10 95 1014.9
20260903015023 25 0 1.6 4.8 0.08 0.10 0.10 94 1014.7
20260903014544 25 0 0.0 4.8 0.08 0.10 0.10 94 1014.7
20260903014020 25 0 1.6 8.0 0.08 0.10 0.10 94 1014.6
20260903013523 25 82 3.2 8.0 0.05 0.08 0.08 94 1014.5
20260903013041 25 48 1.6 8.0 0.05 0.08 0.08 94 1014.4
20260903012526 25 68 3.2 8.0 0.05 0.08 0.08 94 1014.2
20260903012027 25 36 3.2 9.7 0.05 0.08 0.08 94 1014.1
20260903011542 25 48 3.2 12.9 0.03 0.05 0.05 94 1014.1
20260903011024 25 65 4.8 12.9 0.03 0.05 0.05 94 1014.1
20260903010523 25 44 3.2 9.7 0.00 0.03 0.03 94 1014.0
20260903010045 25 12 1.6 12.9 0.00 0.03 0.03 94 1014.0
20260903005522 26 53 4.8 12.9 0.00 0.08 0.03 94 1014.0
20260903005022 26 51 6.4 12.9 0.00 0.08 0.03 94 1014.1
20260903004542 26 58 3.2 11.3 0.00 0.08 0.03 94 1014.0
20260903004023 26 48 4.8 12.9 0.00 0.08 0.03 94 1013.9
20260903003518 26 48 4.8 12.9 0.00 0.08 0.03 94 1013.9
20260903003044 26 65 4.8 12.9 0.00 0.08 0.03 94 1014.0
20260903002523 26 47 4.8 9.7 0.00 0.08 0.03 94 1014.0
20260903002026 26 56 3.2 11.3 0.00 0.08 0.03 94 1013.9
20260903001554 26 61 4.8 12.9 0.00 0.08 0.03 93 1013.9
20260903001020 26 31 4.8 12.9 0.00 0.08 0.03 93 1013.9
20260903000523 26 36 4.8 9.7 0.00 0.08 0.03 93 1013.9
20260903000045 26 50 3.2 9.7 0.00 0.08 0.03 93 1013.9
20260902235522 26 52 3.2 9.7 0.00 0.10 0.03 93 1013.7
20260902235021 26 28 3.2 16.1 0.00 0.10 0.03 92 1013.7
20260902234543 26 0 6.4 16.1 0.00 0.10 0.03 92 1013.8
20260902234027 26 30 3.2 9.7 0.00 0.10 0.03 92 1013.8
20260902233521 26 74 3.2 9.7 0.00 0.10 0.03 92 1013.8
20260902233043 26 26 0.0 6.4 0.00 0.10 0.03 92 1013.8
20260902232525 26 0 0.0 6.4 0.00 0.10 0.03 92 1013.6
20260902232023 26 41 1.6 6.4 0.00 0.10 0.03 91 1013.7
20260902231546 26 61 1.6 6.4 0.00 0.10 0.03 91 1013.8
20260902231021 27 0 1.6 6.4 0.00 0.10 0.03 90 1013.9
20260902230518 27 38 0.0 9.7 0.00 0.10 0.03 90 1013.8
20260902230042 27 18 3.2 9.7 0.00 0.10 0.03 90 1013.7
20260902225520 27 57 3.2 9.7 0.00 0.46 0.03 90 1013.7
20260902225028 27 38 3.2 8.0 0.00 0.46 0.03 90 1013.5
20260902224540 27 52 3.2 8.0 0.00 0.46 0.03 90 1013.6
20260902224023 27 37 1.6 6.4 0.00 0.46 0.03 90 1013.6
20260902223524 27 41 1.6 6.4 0.00 0.46 0.03 90 1013.5
20260902223045 27 50 1.6 8.0 0.00 0.46 0.03 90 1013.6
20260902222518 27 32 1.6 8.0 0.00 0.46 0.03 90 1013.6
20260902222022 26 46 0.0 0.0 0.00 0.46 0.03 91 1013.6
20260902221605 26 0 0.0 4.8 0.00 0.46 0.03 90 1013.5
20260902221025 27 0 0.0 8.0 0.00 0.46 0.03 90 1013.4
20260902220524 27 71 0.0 9.7 0.00 0.46 0.03 89 1013.1
20260902220042 27 71 3.2 9.7 0.00 0.46 0.03 89 1013.0
20260902215526 26 56 3.2 9.7 0.00 0.46 0.03 90 1013.1
20260902215024 26 16 3.2 9.7 0.00 0.46 0.03 90 1013.3
20260902214541 26 0 0.0 8.0 0.00 0.46 0.03 91 1013.2
20260902214019 26 42 3.2 8.0 0.00 0.46 0.03 90 1013.1